Content
SEND FEEDBACK

Daily
Averages
Monthly
Summary
United Kingdom

INVERNESS, SCOTLAND


Home > Europe > United Kingdom > Scotland
Elevation: 30 feet     Latitude: 57 32N     Longitude: 004 03W

WEATHER
 
SELECT A DAY
Number of Records: 236,074;   Date Range: 7/1/96 - 12/16/14
 
SHARE

PRINT THIS DATA

[ ← Previous Day ]
WEATHER ALMANAC - AUGUST 18, 2013
[ Next Day → ]
[ °C ]   °F
Weather ElementAverageHighLow
Temperature55.8 °F60.8 °F (1:50 pm)50 °F (4:20 am)
Dewpoint47 °F50 °F (9:20 am)44.6 °F (3:50 pm)
Humidity73.1 %88 % (12:50 am)55 % (4:20 pm)
Barometer29.48 in29.71 in (11:20 pm)29.33 in (12:50 am)
Wind Speed16.4 mph24.2 mph (10:50 am)
Wind Gust34.5 mph (11:50 am)
Weather ElementAverage
Visibility6.2 mi
Wind DirectionWSW (236 °)

Weather ElementTotal
Precipitation---
Heating Degree Days9.6 (Base 65)
Growing Degree Days5.4 (Base 50)
Averaged from 47 records on August 18, 2013
WEATHER CONDITIONS BREAKOUT
WIND DIRECTION BREAKOUT
WEATHER BY HOUR - AUGUST 18, 2013
[ °C ]   °F
Local TimeTemperatureDewpointHumidityBarometerVisibilityWind DirectionWind SpeedGust SpeedPrecipitationEventsConditions
12:50 AM51.8 °F48.2 °F88 %29.33 in6.2 miSSW (210°)10.4 mphPartly Cloudy
1:20 AM51.8 °F48.2 °F88 %29.33 in6.2 miWSW (250°)9.2 mphPartly Cloudy
1:50 AM53.6 °F48.2 °F82 %29.33 in6.2 miSW (230°)15.0 mph
2:20 AM53.6 °F48.2 °F82 %29.33 in6.2 miSW (230°)16.1 mph
2:50 AM51.8 °F48.2 °F88 %29.33 in6.2 miSW (230°)13.8 mph
3:20 AM51.8 °F48.2 °F88 %29.33 in6.2 miSW (220°)10.4 mph
3:50 AM51.8 °F48.2 °F88 %29.33 in6.2 miSW (220°)12.7 mph
4:20 AM50.0 °F46.4 °F87 %29.33 in6.2 miSW (230°)11.5 mph
4:50 AM50.0 °F46.4 °F87 %29.33 in6.2 miSW (220°)10.4 mph
5:20 AM50.0 °F46.4 °F87 %29.33 in6.2 miSW (230°)13.8 mph
5:50 AM51.8 °F46.4 °F82 %29.33 in6.2 miSW (220°)12.7 mph
6:20 AM51.8 °F48.2 °F88 %29.36 in6.2 miSW (230°)15.0 mph
6:50 AM53.6 °F46.4 °F77 %29.36 in6.2 miSSW (210°)13.8 mphMostly Cloudy
7:20 AM53.6 °F48.2 °F82 %29.36 in6.2 miSW (220°)16.1 mphMostly Cloudy
7:50 AM55.4 °F48.2 °F77 %29.39 in6.2 miSW (220°)16.1 mphMostly Cloudy
8:20 AM55.4 °F48.2 °F77 %29.39 in6.2 miSW (230°)16.1 mphScattered Clouds
8:50 AM59.0 °F48.2 °F67 %29.39 in6.2 miSW (230°)19.6 mphMostly Cloudy
9:20 AM59.0 °F50.0 °F72 %29.39 in6.2 miWSW (240°)19.6 mphMostly Cloudy
9:50 AM59.0 °F50.0 °F72 %29.42 in6.2 miWSW (240°)18.4 mphMostly Cloudy
10:20 AM59.0 °F48.2 °F67 %29.42 in6.2 miWSW (240°)19.6 mphMostly Cloudy
10:50 AM59.0 °F48.2 °F67 %29.42 in6.2 miWSW (240°)24.2 mphMostly Cloudy
11:20 AM57.2 °F46.4 °F67 %29.44 in6.2 miWSW (240°)23.0 mphMostly Cloudy
11:50 AM59.0 °F46.4 °F63 %29.44 in6.2 miWSW (240°)21.9 mph34.5 mphMostly Cloudy
12:20 PM59.0 °F46.4 °F63 %29.47 in6.2 miWSW (240°)21.9 mphMostly Cloudy
12:50 PM59.0 °F46.4 °F63 %29.47 in6.2 miWSW (240°)21.9 mphMostly Cloudy
1:20 PM59.0 °F48.2 °F67 %29.50 in6.2 miWSW (250°)20.7 mphScattered Clouds
1:50 PM60.8 °F48.2 °F63 %29.47 in6.2 miWSW (240°)20.7 mphScattered Clouds
2:20 PM59.0 °F46.4 °F63 %29.50 in6.2 miWSW (250°)24.2 mphScattered Clouds
2:50 PM59.0 °F46.4 °F63 %29.53 in6.2 miWSW (240°)19.6 mphScattered Clouds
3:20 PM60.8 °F46.4 °F59 %29.53 in6.2 miWSW (250°)23.0 mphScattered Clouds
3:50 PM59.0 °F44.6 °F59 %29.53 in6.2 miWSW (250°)24.2 mphScattered Clouds
4:20 PM60.8 °F44.6 °F55 %29.53 in6.2 miWSW (240°)21.9 mphPartly Cloudy
4:50 PM59.0 °F46.4 °F63 %29.56 in6.2 miWSW (250°)23.0 mphScattered Clouds
5:20 PM59.0 °F46.4 °F63 %29.56 in6.2 miWSW (250°)19.6 mphPartly Cloudy
5:50 PM59.0 °F44.6 °F59 %29.56 in6.2 miWSW (250°)19.6 mphPartly Cloudy
6:20 PM59.0 °F44.6 °F59 %29.59 in6.2 miWSW (250°)16.1 mphPartly Cloudy
6:50 PM59.0 °F44.6 °F59 %29.59 in6.2 miWSW (250°)18.4 mphScattered Clouds
7:20 PM57.2 °F46.4 °F67 %29.62 in6.2 miWSW (240°)16.1 mphScattered Clouds
7:50 PM57.2 °F46.4 °F67 %29.62 in6.2 miWSW (240°)16.1 mphScattered Clouds
8:20 PM57.2 °F46.4 °F67 %29.65 in6.2 miWSW (240°)15.0 mphPartly Cloudy
8:50 PM55.4 °F46.4 °F72 %29.65 in6.2 miWSW (250°)15.0 mphPartly Cloudy
9:20 PM53.6 °F46.4 °F77 %29.68 in6.2 miWSW (240°)9.2 mphPartly Cloudy
9:50 PM53.6 °F46.4 °F77 %29.68 in6.2 miWSW (240°)11.5 mphPartly Cloudy
10:20 PM53.6 °F46.4 °F77 %29.68 in6.2 miSW (230°)10.4 mphPartly Cloudy
10:50 PM51.8 °F46.4 °F82 %29.68 in6.2 miSW (230°)10.4 mphPartly Cloudy
11:20 PM51.8 °F46.4 °F82 %29.71 in6.2 miSW (220°)6.9 mphScattered Clouds
11:50 PM50.0 °F46.4 °F87 %29.71 in6.2 miWSW (240°)8.1 mphPartly Cloudy
Hourly data recorded from EGPE, located miles away from Inverness, Scotland







STORIES FROM OUR PARTNERS